STARLINK-2094 (47375 NORAD) Tracking and Keplerian Element Data

This shows tracking and keplerian element data for the satellite.

Feedback or suggestion? Click here.




ElementValue
Catalog47375
NameSTARLINK-2094
Epoch Orbit180
Epoch Day99.91667824
Epoch Year2021
RAAN198.653
Inclination53.0537
Eccentricity9.51E-05
Argument of Perigee115.2432
Mean Anonmoly325.6909
Mean Motion15.06408389
Decay Rate-0.00034552
L11 47375U 21005AC 21099.91667824 -.00034552 00000-0 -23115-2 0 9993
L22 47375 53.0537 198.6530 0000951 115.2432 325.6909 15.06408389 1803

Live tracking and technical data element details for STARLINK-2094 (NORAD 47375). STARLINK-2094 can be tracked NOW for your location showing map with azimuth and elevation plus other details from your city location.

Track the satellite on the map from your city or location and see movement details for azimuth, elevation, latitude, longitude, range, height, and movement on the map or in text.







IsCatalogInMostPopularTable: catalog: 47375, numindb: 12
Update: records affected: 1



GetName: 47375 STARLINK-2094

Hit Count: updated at: Sat, 10 Apr 2021 19:46:53 GMT